User: anonymous   Login
Location: Albany
(35.0000°S, 118.0000°E)
Time: 03:09:01
(UTC-04:00)
Language:

Cosmos 1933 - Orbit

View from above orbital plane
View from above orbital plane
View from above satellite
View from above satellite

Ground track
Ground track

The orbit data is extracted from the following two-line orbital elements,

1 18958U 88020A   16120.52525403  .00000633  00000-0  45108-4 0  9999
2 18958  82.5279 142.8953 0010139 245.9016 114.1149 15.02867187529393
Epoch (UTC): 29 April 2016 12:36:21
Eccentricity: 0.0010139
inclination: 82.5279°
perigee height: 551 km
apogee height: 565 km
right ascension of ascending node: 142.8953°
argument of perigee: 245.9016°
revolutions per day: 15.02867187
mean anomaly at epoch: 114.1149°
orbit number at epoch: 52939

The dashed part of the orbit path shows where the satellite is in the earth's shadow,  

DLR